Time,TemperatureF,DewpointF,PressureIn,WindDirection,WindDirectionDegrees,WindSpeedMPH,WindSpeedGustMPH,Humidity,HourlyPrecipIn,Conditions,Clouds,dailyrainin,SoftwareType,DateUTC
2013-04-17 00:00:00,68.0,64.3,30.11,NE,53,0.0,0.0,88,0.00,,,0.00,Wunderground v.1.15,2013-04-17 04:00:00,
2013-04-17 00:05:00,68.1,64.4,30.11,NE,53,0.0,0.0,88,0.00,,,0.00,Wunderground v.1.15,2013-04-17 04:05:00,
2013-04-17 00:10:00,68.1,64.4,30.11,NE,54,0.0,0.0,88,0.00,,,0.00,Wunderground v.1.15,2013-04-17 04:10:00,
2013-04-17 00:15:00,68.0,64.3,30.11,NE,53,0.0,0.0,88,0.00,,,0.00,Wunderground v.1.15,2013-04-17 04:15:00,
2013-04-17 00:20:00,67.8,63.8,30.11,NE,54,0.0,0.0,87,0.00,,,0.00,Wunderground v.1.15,2013-04-17 04:20:00,
2013-04-17 00:25:00,67.6,63.9,30.11,NE,54,0.0,0.0,88,0.00,,,0.00,Wunderground v.1.15,2013-04-17 04:25:00,
2013-04-17 00:35:00,66.8,62.8,30.11,NE,54,0.0,0.0,87,0.00,,,0.00,Wunderground v.1.15,2013-04-17 04:35:00,
2013-04-17 00:40:00,66.5,62.5,30.11,NE,54,0.0,0.0,87,0.00,,,0.00,Wunderground v.1.15,2013-04-17 04:40:00,
2013-04-17 00:45:00,66.3,62.6,30.11,NE,54,0.0,0.0,88,0.00,,,0.00,Wunderground v.1.15,2013-04-17 04:45:00,
2013-04-17 00:50:00,66.3,62.6,30.11,NE,54,0.0,0.0,88,0.00,,,0.00,Wunderground v.1.15,2013-04-17 04:50:00,
2013-04-17 00:55:00,66.3,62.6,30.11,NE,53,0.0,0.0,88,0.00,,,0.00,Wunderground v.1.15,2013-04-17 04:55:00,
2013-04-17 01:00:00,66.4,63.1,30.11,NE,53,0.0,0.0,89,0.00,,,0.00,Wunderground v.1.15,2013-04-17 05:00:00,
2013-04-17 01:05:00,66.3,63.0,30.11,NE,54,0.0,0.0,89,0.00,,,0.00,Wunderground v.1.15,2013-04-17 05:05:00,
2013-04-17 01:10:00,66.1,62.8,30.11,NE,53,0.0,0.0,89,0.00,,,0.00,Wunderground v.1.15,2013-04-17 05:10:00,
2013-04-17 01:20:00,65.8,62.5,30.10,NE,54,0.0,0.0,89,0.00,,,0.00,Wunderground v.1.15,2013-04-17 05:20:00,
2013-04-17 01:25:00,65.8,62.8,30.10,NE,53,0.0,0.0,90,0.00,,,0.00,Wunderground v.1.15,2013-04-17 05:25:00,
2013-04-17 01:30:00,65.8,62.5,30.10,NE,54,0.0,0.0,89,0.00,,,0.00,Wunderground v.1.15,2013-04-17 05:30:00,
2013-04-17 01:35:00,65.6,62.6,30.10,NE,54,0.0,0.0,90,0.00,,,0.00,Wunderground v.1.15,2013-04-17 05:35:00,
2013-04-17 01:40:00,65.5,62.5,30.10,NE,54,0.0,0.0,90,0.00,,,0.00,Wunderground v.1.15,2013-04-17 05:40:00,
2013-04-17 01:45:00,65.4,62.4,30.10,NE,54,0.0,0.0,90,0.00,,,0.00,Wunderground v.1.15,2013-04-17 05:45:00,
2013-04-17 01:50:00,65.1,62.1,30.09,NE,54,0.0,0.0,90,0.00,,,0.00,Wunderground v.1.15,2013-04-17 05:50:00,
2013-04-17 01:55:00,64.8,61.8,30.09,NE,53,0.0,0.0,90,0.00,,,0.00,Wunderground v.1.15,2013-04-17 05:55:00,
2013-04-17 02:00:00,64.4,61.4,30.09,NE,53,0.0,0.0,90,0.00,,,0.00,Wunderground v.1.15,2013-04-17 06:00:00,
2013-04-17 02:05:00,64.1,61.1,30.09,NE,53,0.0,0.0,90,0.00,,,0.00,Wunderground v.1.15,2013-04-17 06:05:00,
2013-04-17 02:10:00,63.7,60.4,30.09,NE,53,0.0,0.0,89,0.00,,,0.00,Wunderground v.1.15,2013-04-17 06:10:00,
2013-04-17 02:15:00,63.2,59.9,30.09,NE,54,0.0,0.0,89,0.00,,,0.00,Wunderground v.1.15,2013-04-17 06:15:00,
2013-04-17 02:20:00,62.6,59.3,30.09,NE,54,0.0,0.0,89,0.00,,,0.00,Wunderground v.1.15,2013-04-17 06:20:00,
2013-04-17 02:25:00,61.8,58.5,30.09,NE,53,0.0,0.0,89,0.00,,,0.00,Wunderground v.1.15,2013-04-17 06:25:00,
2013-04-17 02:30:00,61.2,57.9,30.09,NE,54,0.0,0.0,89,0.00,,,0.00,Wunderground v.1.15,2013-04-17 06:30:00,
2013-04-17 02:40:00,60.4,57.5,30.08,NE,54,0.0,0.0,90,0.00,,,0.00,Wunderground v.1.15,2013-04-17 06:40:00,
2013-04-17 02:45:00,60.2,57.3,30.08,NE,54,0.0,0.0,90,0.00,,,0.00,Wunderground v.1.15,2013-04-17 06:45:00,
2013-04-17 02:50:00,60.0,57.1,30.08,NE,54,0.0,0.0,90,0.00,,,0.00,Wunderground v.1.15,2013-04-17 06:50:00,
2013-04-17 03:00:00,59.8,56.9,30.08,NE,54,0.0,0.0,90,0.00,,,0.00,Wunderground v.1.15,2013-04-17 07:00:00,
2013-04-17 03:05:00,59.8,57.2,30.08,NE,53,0.0,0.0,91,0.00,,,0.00,Wunderground v.1.15,2013-04-17 07:05:00,
2013-04-17 03:10:00,60.0,57.4,30.08,NE,54,0.0,0.0,91,0.00,,,0.00,Wunderground v.1.15,2013-04-17 07:10:00,
2013-04-17 03:15:00,60.1,57.8,30.08,NE,54,0.0,0.0,92,0.00,,,0.00,Wunderground v.1.15,2013-04-17 07:15:00,
2013-04-17 03:20:00,59.8,57.2,30.08,NE,53,0.0,0.0,91,0.00,,,0.00,Wunderground v.1.15,2013-04-17 07:20:00,
2013-04-17 03:25:00,59.7,57.4,30.08,NE,54,0.0,0.0,92,0.00,,,0.00,Wunderground v.1.15,2013-04-17 07:25:00,
2013-04-17 03:30:00,59.6,57.3,30.08,NE,53,0.0,0.0,92,0.00,,,0.00,Wunderground v.1.15,2013-04-17 07:30:00,
2013-04-17 03:35:00,59.3,56.7,30.08,NE,53,0.0,0.0,91,0.00,,,0.00,Wunderground v.1.15,2013-04-17 07:35:00,
2013-04-17 03:40:00,59.0,56.4,30.08,NE,54,0.0,0.0,91,0.00,,,0.00,Wunderground v.1.15,2013-04-17 07:40:00,
2013-04-17 03:45:00,58.9,56.6,30.09,NE,53,0.0,0.0,92,0.00,,,0.00,Wunderground v.1.15,2013-04-17 07:45:00,
2013-04-17 03:50:00,58.8,56.5,30.08,NE,53,0.0,0.0,92,0.00,,,0.00,Wunderground v.1.15,2013-04-17 07:50:00,
2013-04-17 03:55:00,59.1,57.1,30.08,NE,54,0.0,0.0,93,0.00,,,0.00,Wunderground v.1.15,2013-04-17 07:55:00,
2013-04-17 04:00:00,59.3,57.0,30.08,NE,54,0.0,0.0,92,0.00,,,0.00,Wunderground v.1.15,2013-04-17 08:00:00,
2013-04-17 04:05:00,59.3,57.0,30.08,NE,53,0.0,0.0,92,0.00,,,0.00,Wunderground v.1.15,2013-04-17 08:05:00,
2013-04-17 04:10:00,59.4,57.1,30.08,NE,54,0.0,0.0,92,0.00,,,0.00,Wunderground v.1.15,2013-04-17 08:10:00,
2013-04-17 04:15:00,59.5,57.5,30.08,NE,53,0.0,0.0,93,0.00,,,0.00,Wunderground v.1.15,2013-04-17 08:15:00,
2013-04-17 04:20:00,59.7,57.7,30.08,NE,54,0.0,0.0,93,0.00,,,0.00,Wunderground v.1.15,2013-04-17 08:20:00,
2013-04-17 04:25:00,59.7,57.7,30.08,NE,53,0.0,0.0,93,0.00,,,0.00,Wunderground v.1.15,2013-04-17 08:25:00,
2013-04-17 04:30:00,59.6,57.6,30.08,NE,54,0.0,0.0,93,0.00,,,0.00,Wunderground v.1.15,2013-04-17 08:30:00,
2013-04-17 04:35:00,59.4,57.4,30.08,NE,54,0.0,0.0,93,0.00,,,0.00,Wunderground v.1.15,2013-04-17 08:35:00,
2013-04-17 04:45:00,59.3,57.3,30.08,NE,54,0.0,0.0,93,0.00,,,0.00,Wunderground v.1.15,2013-04-17 08:45:00,
2013-04-17 04:50:00,59.3,57.3,30.08,NE,54,0.0,0.0,93,0.00,,,0.00,Wunderground v.1.15,2013-04-17 08:50:00,
2013-04-17 05:00:00,59.0,57.0,30.08,NE,54,0.0,0.0,93,0.00,,,0.00,Wunderground v.1.15,2013-04-17 09:00:00,
2013-04-17 05:05:00,58.6,56.6,30.08,NE,54,0.0,0.0,93,0.00,,,0.00,Wunderground v.1.15,2013-04-17 09:05:00,
2013-04-17 05:15:00,58.4,56.4,30.08,NE,54,0.0,0.0,93,0.00,,,0.00,Wunderground v.1.15,2013-04-17 09:15:00,
2013-04-17 05:20:00,58.2,56.2,30.08,NE,53,0.0,0.0,93,0.00,,,0.00,Wunderground v.1.15,2013-04-17 09:20:00,
2013-04-17 05:25:00,58.0,56.0,30.08,NE,54,0.0,0.0,93,0.00,,,0.00,Wunderground v.1.15,2013-04-17 09:25:00,
2013-04-17 05:30:00,58.1,56.1,30.08,NE,54,0.0,0.0,93,0.00,,,0.00,Wunderground v.1.15,2013-04-17 09:30:00,
2013-04-17 05:35:00,58.4,56.4,30.08,NE,54,0.0,0.0,93,0.00,,,0.00,Wunderground v.1.15,2013-04-17 09:35:00,
2013-04-17 05:40:00,59.0,57.3,30.08,NE,54,0.0,0.0,94,0.00,,,0.00,Wunderground v.1.15,2013-04-17 09:40:00,
2013-04-17 05:50:00,59.1,57.4,30.08,NE,53,0.0,0.0,94,0.00,,,0.00,Wunderground v.1.15,2013-04-17 09:50:00,
2013-04-17 05:55:00,59.0,57.0,30.08,NE,54,0.0,0.0,93,0.00,,,0.00,Wunderground v.1.15,2013-04-17 09:55:00,
2013-04-17 06:00:00,58.6,56.6,30.08,NE,54,0.0,0.0,93,0.00,,,0.00,Wunderground v.1.15,2013-04-17 10:00:00,
2013-04-17 06:05:00,58.4,56.4,30.08,NE,54,0.0,0.0,93,0.00,,,0.00,Wunderground v.1.15,2013-04-17 10:05:00,
2013-04-17 06:10:00,58.0,56.0,30.08,NE,53,0.0,0.0,93,0.00,,,0.00,Wunderground v.1.15,2013-04-17 10:10:00,
2013-04-17 06:15:00,58.1,56.4,30.08,NE,54,0.0,0.0,94,0.00,,,0.00,Wunderground v.1.15,2013-04-17 10:15:00,
2013-04-17 06:20:00,58.6,56.9,30.09,NE,54,0.0,0.0,94,0.00,,,0.00,Wunderground v.1.15,2013-04-17 10:20:00,
2013-04-17 06:25:00,59.2,57.8,30.09,NE,53,0.0,0.0,95,0.00,,,0.00,Wunderground v.1.15,2013-04-17 10:25:00,
2013-04-17 06:30:00,60.1,58.7,30.09,NE,54,0.0,0.0,95,0.00,,,0.00,Wunderground v.1.15,2013-04-17 10:30:00,
2013-04-17 06:35:00,60.7,59.3,30.09,NE,53,0.0,0.0,95,0.00,,,0.00,Wunderground v.1.15,2013-04-17 10:35:00,
2013-04-17 06:40:00,60.9,59.5,30.09,NE,53,0.0,0.0,95,0.00,,,0.00,Wunderground v.1.15,2013-04-17 10:40:00,
2013-04-17 06:45:00,61.0,59.6,30.09,NE,54,0.0,0.0,95,0.00,,,0.00,Wunderground v.1.15,2013-04-17 10:45:00,
2013-04-17 06:50:00,61.2,59.8,30.10,NE,53,0.0,0.0,95,0.00,,,0.00,Wunderground v.1.15,2013-04-17 10:50:00,
2013-04-17 06:55:00,61.5,60.1,30.10,NE,54,0.0,0.0,95,0.00,,,0.00,Wunderground v.1.15,2013-04-17 10:55:00,
2013-04-17 07:00:00,61.8,60.4,30.10,NE,53,0.0,0.0,95,0.00,,,0.00,Wunderground v.1.15,2013-04-17 11:00:00,
2013-04-17 07:05:00,62.0,60.6,30.10,NE,54,0.0,0.0,95,0.00,,,0.00,Wunderground v.1.15,2013-04-17 11:05:00,
2013-04-17 07:10:00,62.0,60.6,30.11,NE,54,0.0,0.0,95,0.00,,,0.00,Wunderground v.1.15,2013-04-17 11:10:00,
2013-04-17 07:15:00,62.0,60.3,30.11,NE,54,0.0,0.0,94,0.00,,,0.00,Wunderground v.1.15,2013-04-17 11:15:00,
2013-04-17 07:20:00,62.0,60.3,30.11,NE,54,0.0,0.0,94,0.00,,,0.00,Wunderground v.1.15,2013-04-17 11:20:00,
2013-04-17 07:25:00,62.1,60.7,30.11,NE,54,0.0,0.0,95,0.00,,,0.00,Wunderground v.1.15,2013-04-17 11:25:00,
2013-04-17 07:30:00,62.4,60.9,30.11,NE,54,0.0,0.0,95,0.00,,,0.00,Wunderground v.1.15,2013-04-17 11:30:00,
2013-04-17 07:35:00,62.7,61.2,30.11,NE,53,0.0,0.0,95,0.00,,,0.00,Wunderground v.1.15,2013-04-17 11:35:00,
2013-04-17 07:40:00,63.1,61.6,30.12,NE,54,0.0,0.0,95,0.00,,,0.00,Wunderground v.1.15,2013-04-17 11:40:00,
2013-04-17 07:45:00,63.6,62.1,30.12,NE,54,0.0,0.0,95,0.00,,,0.00,Wunderground v.1.15,2013-04-17 11:45:00,
2013-04-17 07:50:00,64.3,62.8,30.12,NE,53,0.0,0.0,95,0.00,,,0.00,Wunderground v.1.15,2013-04-17 11:50:00,
2013-04-17 07:55:00,65.0,63.5,30.12,NE,54,0.0,0.0,95,0.00,,,0.00,Wunderground v.1.15,2013-04-17 11:55:00,
2013-04-17 08:00:00,66.0,64.5,30.12,NE,53,0.0,0.0,95,0.00,,,0.00,Wunderground v.1.15,2013-04-17 12:00:00,
2013-04-17 08:05:00,67.3,65.8,30.11,NE,53,0.0,0.0,95,0.00,,,0.00,Wunderground v.1.15,2013-04-17 12:05:00,
2013-04-17 08:10:00,68.1,66.6,30.12,NE,53,0.0,0.0,95,0.00,,,0.00,Wunderground v.1.15,2013-04-17 12:10:00,
2013-04-17 08:20:00,68.9,67.4,30.12,NE,54,0.0,0.0,95,0.00,,,0.00,Wunderground v.1.15,2013-04-17 12:20:00,
2013-04-17 08:25:00,69.3,67.8,30.12,NE,53,0.0,0.0,95,0.00,,,0.00,Wunderground v.1.15,2013-04-17 12:25:00,
2013-04-17 08:30:00,69.7,68.2,30.12,NE,54,0.0,0.0,95,0.00,,,0.00,Wunderground v.1.15,2013-04-17 12:30:00,
2013-04-17 08:35:00,70.1,68.6,30.12,NE,54,0.0,0.0,95,0.00,,,0.00,Wunderground v.1.15,2013-04-17 12:35:00,
2013-04-17 08:40:00,70.3,68.8,30.12,NE,53,0.0,0.0,95,0.00,,,0.00,Wunderground v.1.15,2013-04-17 12:40:00,
2013-04-17 08:45:00,70.7,69.2,30.12,NE,54,0.0,0.0,95,0.00,,,0.00,Wunderground v.1.15,2013-04-17 12:45:00,
2013-04-17 08:50:00,70.9,69.4,30.12,NE,54,0.0,0.0,95,0.00,,,0.00,Wunderground v.1.15,2013-04-17 12:50:00,
2013-04-17 08:55:00,70.9,69.1,30.11,NE,54,0.0,0.0,94,0.00,,,0.00,Wunderground v.1.15,2013-04-17 12:55:00,
2013-04-17 09:00:00,71.1,69.3,30.11,NE,53,0.0,0.0,94,0.00,,,0.00,Wunderground v.1.15,2013-04-17 13:00:00,
2013-04-17 09:05:00,71.1,69.3,30.11,ENE,75,0.0,0.0,94,0.00,,,0.00,Wunderground v.1.15,2013-04-17 13:05:00,
2013-04-17 09:10:00,71.4,69.6,30.11,ENE,74,0.0,0.0,94,0.00,,,0.00,Wunderground v.1.15,2013-04-17 13:10:00,
2013-04-17 09:15:00,72.0,69.9,30.11,ENE,61,1.0,2.0,93,0.00,,,0.00,Wunderground v.1.15,2013-04-17 13:15:00,
2013-04-17 09:20:00,72.6,70.5,30.11,ENE,57,3.0,3.0,93,0.00,,,0.00,Wunderground v.1.15,2013-04-17 13:20:00,
2013-04-17 09:25:00,73.1,70.6,30.11,ENE,57,3.0,3.0,92,0.00,,,0.00,Wunderground v.1.15,2013-04-17 13:25:00,
2013-04-17 09:30:00,73.8,70.7,30.11,NE,40,3.0,3.0,90,0.00,,,0.00,Wunderground v.1.15,2013-04-17 13:30:00,
2013-04-17 09:35:00,73.8,70.0,30.11,NE,49,4.0,4.0,88,0.00,,,0.00,Wunderground v.1.15,2013-04-17 13:35:00,
2013-04-17 09:40:00,73.6,69.2,30.11,NE,34,4.0,4.0,86,0.00,,,0.00,Wunderground v.1.15,2013-04-17 13:40:00,
2013-04-17 09:45:00,73.8,69.7,30.11,NE,39,4.0,5.0,87,0.00,,,0.00,Wunderground v.1.15,2013-04-17 13:45:00,
2013-04-17 09:50:00,74.7,70.2,30.11,NE,48,4.0,4.0,86,0.00,,,0.00,Wunderground v.1.15,2013-04-17 13:50:00,
2013-04-17 10:00:00,75.4,69.5,30.11,NNE,31,5.0,7.0,82,0.00,,,0.00,Wunderground v.1.15,2013-04-17 14:00:00,
2013-04-17 10:05:00,75.5,69.3,30.11,NNE,22,6.0,7.0,81,0.00,,,0.00,Wunderground v.1.15,2013-04-17 14:05:00,
2013-04-17 10:15:00,76.2,69.6,30.11,NNE,17,6.0,7.0,80,0.00,,,0.00,Wunderground v.1.15,2013-04-17 14:15:00,
2013-04-17 10:20:00,76.8,69.4,30.11,NNE,16,7.0,12.0,78,0.00,,,0.00,Wunderground v.1.15,2013-04-17 14:20:00,
2013-04-17 10:25:00,76.8,69.4,30.11,ENE,64,7.0,12.0,78,0.00,,,0.00,Wunderground v.1.15,2013-04-17 14:25:00,
2013-04-17 10:30:00,77.0,69.6,30.11,NE,45,7.0,7.0,78,0.00,,,0.00,Wunderground v.1.15,2013-04-17 14:30:00,
2013-04-17 10:40:00,77.5,69.7,30.10,East,88,6.0,6.0,77,0.00,,,0.00,Wunderground v.1.15,2013-04-17 14:40:00,
2013-04-17 10:45:00,78.2,69.6,30.10,North,10,5.0,9.0,75,0.00,,,0.00,Wunderground v.1.15,2013-04-17 14:45:00,
2013-04-17 10:50:00,78.0,68.6,30.10,NNE,19,7.0,9.0,73,0.00,,,0.00,Wunderground v.1.15,2013-04-17 14:50:00,
2013-04-17 10:55:00,78.4,69.8,30.10,ENE,63,7.0,9.0,75,0.00,,,0.00,Wunderground v.1.15,2013-04-17 14:55:00,
2013-04-17 11:00:00,79.1,68.9,30.10,NE,51,6.0,9.0,71,0.00,,,0.00,Wunderground v.1.15,2013-04-17 15:00:00,
2013-04-17 11:05:00,78.7,68.1,30.10,East,80,7.0,12.0,70,0.00,,,0.00,Wunderground v.1.15,2013-04-17 15:05:00,
2013-04-17 11:10:00,78.6,67.6,30.10,NNE,33,8.0,10.0,69,0.00,,,0.00,Wunderground v.1.15,2013-04-17 15:10:00,
2013-04-17 11:15:00,78.4,67.8,30.10,NE,40,8.0,10.0,70,0.00,,,0.00,Wunderground v.1.15,2013-04-17 15:15:00,
2013-04-17 11:20:00,78.7,68.9,30.10,NE,49,7.0,9.0,72,0.00,,,0.00,Wunderground v.1.15,2013-04-17 15:20:00,
2013-04-17 11:25:00,79.2,69.4,30.10,NE,51,5.0,9.0,72,0.00,,,0.00,Wunderground v.1.15,2013-04-17 15:25:00,
2013-04-17 11:30:00,79.3,69.1,30.10,NE,34,6.0,7.0,71,0.00,,,0.00,Wunderground v.1.15,2013-04-17 15:30:00,
2013-04-17 11:35:00,79.1,68.5,30.09,NNE,14,5.0,11.0,70,0.00,,,0.00,Wunderground v.1.15,2013-04-17 15:35:00,
2013-04-17 11:40:00,79.1,68.9,30.09,NNE,23,5.0,5.0,71,0.00,,,0.00,Wunderground v.1.15,2013-04-17 15:40:00,
2013-04-17 11:50:00,78.8,68.2,30.09,NE,41,7.0,7.0,70,0.00,,,0.00,Wunderground v.1.15,2013-04-17 15:50:00,
2013-04-17 11:55:00,79.1,68.1,30.09,North,9,7.0,11.0,69,0.00,,,0.00,Wunderground v.1.15,2013-04-17 15:55:00,
2013-04-17 12:00:00,79.1,67.6,30.09,ENE,63,9.0,9.0,68,0.00,,,0.00,Wunderground v.1.15,2013-04-17 16:00:00,
2013-04-17 12:05:00,78.7,67.2,30.09,NE,38,8.0,9.0,68,0.00,,,0.00,Wunderground v.1.15,2013-04-17 16:05:00,
2013-04-17 12:10:00,78.5,67.1,30.09,NE,34,6.0,6.0,68,0.00,,,0.00,Wunderground v.1.15,2013-04-17 16:10:00,
2013-04-17 12:20:00,78.8,66.9,30.09,NNE,23,5.0,7.0,67,0.00,,,0.00,Wunderground v.1.15,2013-04-17 16:20:00,
2013-04-17 12:30:00,80.5,67.2,30.08,North,360,8.0,8.0,64,0.00,,,0.00,Wunderground v.1.15,2013-04-17 16:30:00,
2013-04-17 12:35:00,81.1,67.3,30.08,NNE,20,8.0,8.0,63,0.00,,,0.00,Wunderground v.1.15,2013-04-17 16:35:00,
2013-04-17 12:40:00,81.9,67.6,30.07,NNE,30,8.0,8.0,62,0.00,,,0.00,Wunderground v.1.15,2013-04-17 16:40:00,
2013-04-17 12:50:00,80.8,66.6,30.07,NNE,13,6.0,8.0,62,0.00,,,0.00,Wunderground v.1.15,2013-04-17 16:50:00,
2013-04-17 13:00:00,82.1,67.8,30.07,ENE,61,6.0,6.0,62,0.00,,,0.00,Wunderground v.1.15,2013-04-17 17:00:00,
2013-04-17 13:05:00,82.2,67.4,30.07,NE,38,4.0,6.0,61,0.00,,,0.00,Wunderground v.1.15,2013-04-17 17:05:00,
2013-04-17 13:10:00,81.9,67.1,30.06,NNE,26,6.0,6.0,61,0.00,,,0.00,Wunderground v.1.15,2013-04-17 17:10:00,
2013-04-17 13:15:00,81.2,66.9,30.06,NNE,33,7.0,7.0,62,0.00,,,0.00,Wunderground v.1.15,2013-04-17 17:15:00,
2013-04-17 13:20:00,82.0,67.2,30.06,North,5,9.0,11.0,61,0.00,,,0.00,Wunderground v.1.15,2013-04-17 17:20:00,
2013-04-17 13:25:00,81.5,66.8,30.05,NNE,32,8.0,11.0,61,0.00,,,0.00,Wunderground v.1.15,2013-04-17 17:25:00,
2013-04-17 13:30:00,82.1,67.8,30.05,ESE,120,7.0,7.0,62,0.00,,,0.00,Wunderground v.1.15,2013-04-17 17:30:00,
2013-04-17 13:35:00,82.1,66.8,30.05,NNE,15,7.0,7.0,60,0.00,,,0.00,Wunderground v.1.15,2013-04-17 17:35:00,
2013-04-17 13:40:00,81.2,66.9,30.05,NNE,28,8.0,8.0,62,0.00,,,0.00,Wunderground v.1.15,2013-04-17 17:40:00,
2013-04-17 13:45:00,82.0,68.2,30.05,NNE,24,8.0,8.0,63,0.00,,,0.00,Wunderground v.1.15,2013-04-17 17:45:00,
2013-04-17 13:50:00,82.2,67.4,30.05,NNE,24,7.0,9.0,61,0.00,,,0.00,Wunderground v.1.15,2013-04-17 17:50:00,
2013-04-17 13:55:00,82.3,68.0,30.04,ENE,64,7.0,9.0,62,0.00,,,0.00,Wunderground v.1.15,2013-04-17 17:55:00,
2013-04-17 14:00:00,82.7,67.9,30.04,East,96,7.0,7.0,61,0.00,,,0.00,Wunderground v.1.15,2013-04-17 18:00:00,
2013-04-17 14:05:00,82.4,67.1,30.04,ENE,59,6.0,7.0,60,0.00,,,0.00,Wunderground v.1.15,2013-04-17 18:05:00,
2013-04-17 14:10:00,82.4,68.1,30.04,NNE,12,5.0,11.0,62,0.00,,,0.00,Wunderground v.1.15,2013-04-17 18:10:00,
2013-04-17 14:15:00,83.3,66.5,30.04,ENE,76,5.0,11.0,57,0.00,,,0.00,Wunderground v.1.15,2013-04-17 18:15:00,
2013-04-17 14:20:00,83.6,67.3,30.04,East,95,7.0,7.0,58,0.00,,,0.00,Wunderground v.1.15,2013-04-17 18:20:00,
2013-04-17 14:25:00,83.9,66.0,30.03,ENE,65,6.0,7.0,55,0.00,,,0.00,Wunderground v.1.15,2013-04-17 18:25:00,
2013-04-17 14:30:00,82.9,66.6,30.04,East,80,6.0,6.0,58,0.00,,,0.00,Wunderground v.1.15,2013-04-17 18:30:00,
2013-04-17 14:35:00,82.7,66.4,30.04,ENE,77,5.0,6.0,58,0.00,,,0.00,Wunderground v.1.15,2013-04-17 18:35:00,
2013-04-17 14:40:00,83.6,66.2,30.03,NE,51,4.0,5.0,56,0.00,,,0.00,Wunderground v.1.15,2013-04-17 18:40:00,
2013-04-17 14:45:00,83.6,66.8,30.03,NE,55,4.0,7.0,57,0.00,,,0.00,Wunderground v.1.15,2013-04-17 18:45:00,
2013-04-17 14:50:00,84.3,66.9,30.03,NNE,22,5.0,5.0,56,0.00,,,0.00,Wunderground v.1.15,2013-04-17 18:50:00,
2013-04-17 15:00:00,85.0,66.0,30.02,NNE,32,8.0,8.0,53,0.00,,,0.00,Wunderground v.1.15,2013-04-17 19:00:00,
2013-04-17 15:05:00,84.6,67.2,30.02,NE,44,7.0,8.0,56,0.00,,,0.00,Wunderground v.1.15,2013-04-17 19:05:00,
2013-04-17 15:15:00,85.0,67.0,30.02,NNE,23,6.0,10.0,55,0.00,,,0.00,Wunderground v.1.15,2013-04-17 19:15:00,
2013-04-17 15:20:00,84.7,65.7,30.02,NNE,16,7.0,7.0,53,0.00,,,0.00,Wunderground v.1.15,2013-04-17 19:20:00,
2013-04-17 15:25:00,84.7,66.2,30.02,ENE,60,6.0,11.0,54,0.00,,,0.00,Wunderground v.1.15,2013-04-17 19:25:00,
2013-04-17 15:30:00,84.7,65.7,30.01,ENE,63,5.0,5.0,53,0.00,,,0.00,Wunderground v.1.15,2013-04-17 19:30:00,
2013-04-17 15:35:00,84.4,65.9,30.02,NE,40,4.0,5.0,54,0.00,,,0.00,Wunderground v.1.15,2013-04-17 19:35:00,
2013-04-17 15:40:00,84.0,66.1,30.01,ESE,113,4.0,5.0,55,0.00,,,0.00,Wunderground v.1.15,2013-04-17 19:40:00,
2013-04-17 15:45:00,83.3,65.4,30.01,ESE,103,5.0,5.0,55,0.00,,,0.00,Wunderground v.1.15,2013-04-17 19:45:00,
2013-04-17 15:50:00,82.8,66.0,30.01,ENE,66,4.0,5.0,57,0.00,,,0.00,Wunderground v.1.15,2013-04-17 19:50:00,
2013-04-17 16:00:00,84.1,67.7,30.01,NNE,32,5.0,10.0,58,0.00,,,0.00,Wunderground v.1.15,2013-04-17 20:00:00,
2013-04-17 16:05:00,84.7,67.8,30.01,East,89,6.0,10.0,57,0.00,,,0.00,Wunderground v.1.15,2013-04-17 20:05:00,
2013-04-17 16:10:00,83.9,66.5,30.01,NE,42,7.0,8.0,56,0.00,,,0.00,Wunderground v.1.15,2013-04-17 20:10:00,
2013-04-17 16:15:00,83.5,67.2,30.00,NE,54,7.0,9.0,58,0.00,,,0.00,Wunderground v.1.15,2013-04-17 20:15:00,
2013-04-17 16:20:00,83.4,66.6,30.00,NE,56,6.0,6.0,57,0.00,,,0.00,Wunderground v.1.15,2013-04-17 20:20:00,
2013-04-17 16:25:00,83.5,65.6,30.00,NE,35,7.0,9.0,55,0.00,,,0.00,Wunderground v.1.15,2013-04-17 20:25:00,
2013-04-17 16:30:00,83.4,65.5,30.00,NE,55,7.0,7.0,55,0.00,,,0.00,Wunderground v.1.15,2013-04-17 20:30:00,
2013-04-17 16:40:00,84.3,68.4,30.00,NE,34,6.0,10.0,59,0.00,,,0.00,Wunderground v.1.15,2013-04-17 20:40:00,
2013-04-17 16:45:00,84.2,67.3,30.01,NNE,29,7.0,10.0,57,0.00,,,0.00,Wunderground v.1.15,2013-04-17 20:45:00,
2013-04-17 16:50:00,83.7,67.4,30.01,ENE,63,7.0,7.0,58,0.00,,,0.00,Wunderground v.1.15,2013-04-17 20:50:00,
2013-04-17 17:00:00,83.0,67.2,30.01,ENE,65,6.0,6.0,59,0.00,,,0.00,Wunderground v.1.15,2013-04-17 21:00:00,
2013-04-17 17:05:00,82.4,67.1,30.01,ENE,61,6.0,6.0,60,0.00,,,0.00,Wunderground v.1.15,2013-04-17 21:05:00,
2013-04-17 17:10:00,82.3,66.5,30.01,NE,35,5.0,8.0,59,0.00,,,0.00,Wunderground v.1.15,2013-04-17 21:10:00,
2013-04-17 17:15:00,82.5,67.2,30.01,East,96,5.0,8.0,60,0.00,,,0.00,Wunderground v.1.15,2013-04-17 21:15:00,
2013-04-17 17:20:00,82.3,67.0,30.01,NE,53,6.0,7.0,60,0.00,,,0.00,Wunderground v.1.15,2013-04-17 21:20:00,
2013-04-17 17:30:00,81.6,67.3,30.01,ENE,68,6.0,6.0,62,0.00,,,0.00,Wunderground v.1.15,2013-04-17 21:30:00,
2013-04-17 17:35:00,81.6,67.8,30.01,NE,44,5.0,6.0,63,0.00,,,0.00,Wunderground v.1.15,2013-04-17 21:35:00,
2013-04-17 17:40:00,82.1,68.3,30.01,ENE,75,4.0,4.0,63,0.00,,,0.00,Wunderground v.1.15,2013-04-17 21:40:00,
2013-04-17 17:45:00,82.4,68.1,30.01,ENE,61,5.0,5.0,62,0.00,,,0.00,Wunderground v.1.15,2013-04-17 21:45:00,
2013-04-17 17:50:00,82.7,67.9,30.01,NNE,22,6.0,12.0,61,0.00,,,0.00,Wunderground v.1.15,2013-04-17 21:50:00,
2013-04-17 18:00:00,81.6,67.3,30.01,NE,34,8.0,8.0,62,0.00,,,0.00,Wunderground v.1.15,2013-04-17 22:00:00,
2013-04-17 18:05:00,81.5,67.7,30.01,NNE,31,7.0,11.0,63,0.00,,,0.00,Wunderground v.1.15,2013-04-17 22:05:00,
2013-04-17 18:10:00,81.3,67.5,30.02,ENE,61,7.0,7.0,63,0.00,,,0.00,Wunderground v.1.15,2013-04-17 22:10:00,
2013-04-17 18:15:00,81.4,67.6,30.02,NNE,12,6.0,7.0,63,0.00,,,0.00,Wunderground v.1.15,2013-04-17 22:15:00,
2013-04-17 18:20:00,81.5,68.1,30.02,NNE,15,6.0,10.0,64,0.00,,,0.00,Wunderground v.1.15,2013-04-17 22:20:00,
2013-04-17 18:25:00,81.4,68.1,30.02,NE,46,6.0,10.0,64,0.00,,,0.00,Wunderground v.1.15,2013-04-17 22:25:00,
2013-04-17 18:30:00,81.1,67.8,30.02,NNE,29,5.0,5.0,64,0.00,,,0.00,Wunderground v.1.15,2013-04-17 22:30:00,
2013-04-17 18:35:00,80.9,67.6,30.02,NNE,21,4.0,10.0,64,0.00,,,0.00,Wunderground v.1.15,2013-04-17 22:35:00,
2013-04-17 18:40:00,80.3,67.5,30.02,NNE,24,6.0,6.0,65,0.00,,,0.00,Wunderground v.1.15,2013-04-17 22:40:00,
2013-04-17 18:45:00,79.9,68.0,30.02,NE,49,5.0,6.0,67,0.00,,,0.00,Wunderground v.1.15,2013-04-17 22:45:00,
2013-04-17 18:50:00,79.5,68.0,30.02,NNE,20,5.0,7.0,68,0.00,,,0.00,Wunderground v.1.15,2013-04-17 22:50:00,
2013-04-17 18:55:00,79.3,67.8,30.03,NE,37,6.0,7.0,68,0.00,,,0.00,Wunderground v.1.15,2013-04-17 22:55:00,
2013-04-17 19:00:00,79.1,67.6,30.03,North,9,5.0,5.0,68,0.00,,,0.00,Wunderground v.1.15,2013-04-17 23:00:00,
2013-04-17 19:05:00,78.9,67.4,30.02,NE,48,5.0,5.0,68,0.00,,,0.00,Wunderground v.1.15,2013-04-17 23:05:00,
2013-04-17 19:10:00,78.7,67.7,30.02,NE,44,5.0,5.0,69,0.00,,,0.00,Wunderground v.1.15,2013-04-17 23:10:00,
2013-04-17 19:15:00,78.7,67.7,30.03,NE,42,4.0,5.0,69,0.00,,,0.00,Wunderground v.1.15,2013-04-17 23:15:00,
2013-04-17 19:20:00,78.5,67.1,30.03,ENE,60,4.0,4.0,68,0.00,,,0.00,Wunderground v.1.15,2013-04-17 23:20:00,
2013-04-17 19:30:00,78.0,67.0,30.03,NE,56,3.0,3.0,69,0.00,,,0.00,Wunderground v.1.15,2013-04-17 23:30:00,
2013-04-17 19:35:00,77.8,66.8,30.03,East,85,3.0,6.0,69,0.00,,,0.00,Wunderground v.1.15,2013-04-17 23:35:00,
2013-04-17 19:40:00,77.7,66.7,30.03,East,92,3.0,3.0,69,0.00,,,0.00,Wunderground v.1.15,2013-04-17 23:40:00,
2013-04-17 19:45:00,77.6,66.6,30.03,NE,53,2.0,5.0,69,0.00,,,0.00,Wunderground v.1.15,2013-04-17 23:45:00,
2013-04-17 19:50:00,77.5,66.5,30.03,ENE,65,2.0,2.0,69,0.00,,,0.00,Wunderground v.1.15,2013-04-17 23:50:00,
2013-04-17 19:55:00,77.3,66.3,30.03,East,79,3.0,3.0,69,0.00,,,0.00,Wunderground v.1.15,2013-04-17 23:55:00,
2013-04-17 20:00:00,77.1,66.6,30.03,NE,53,4.0,6.0,70,0.00,,,0.00,Wunderground v.1.15,2013-04-18 00:00:00,
2013-04-17 20:05:00,77.0,66.5,30.02,ENE,62,4.0,6.0,70,0.00,,,0.00,Wunderground v.1.15,2013-04-18 00:05:00,
2013-04-17 20:10:00,76.8,66.3,30.03,ENE,59,4.0,4.0,70,0.00,,,0.00,Wunderground v.1.15,2013-04-18 00:10:00,
2013-04-17 20:20:00,76.3,66.2,30.03,ENE,59,2.0,2.0,71,0.00,,,0.00,Wunderground v.1.15,2013-04-18 00:20:00,
2013-04-17 20:25:00,76.0,65.9,30.03,ENE,65,2.0,2.0,71,0.00,,,0.00,Wunderground v.1.15,2013-04-18 00:25:00,
2013-04-17 20:30:00,75.8,66.1,30.03,East,82,3.0,4.0,72,0.00,,,0.00,Wunderground v.1.15,2013-04-18 00:30:00,
2013-04-17 20:35:00,75.5,65.8,30.03,ENE,76,3.0,4.0,72,0.00,,,0.00,Wunderground v.1.15,2013-04-18 00:35:00,
2013-04-17 20:40:00,75.3,66.0,30.03,ENE,74,2.0,3.0,73,0.00,,,0.00,Wunderground v.1.15,2013-04-18 00:40:00,
2013-04-17 20:50:00,74.9,65.7,30.03,ENE,74,2.0,2.0,73,0.00,,,0.00,Wunderground v.1.15,2013-04-18 00:50:00,
2013-04-17 20:55:00,74.6,65.8,30.03,ENE,73,2.0,2.0,74,0.00,,,0.00,Wunderground v.1.15,2013-04-18 00:55:00,
2013-04-17 21:00:00,74.5,65.7,30.04,ENE,75,2.0,2.0,74,0.00,,,0.00,Wunderground v.1.15,2013-04-18 01:00:00,
2013-04-17 21:05:00,74.3,65.9,30.04,ENE,68,2.0,2.0,75,0.00,,,0.00,Wunderground v.1.15,2013-04-18 01:05:00,
2013-04-17 21:10:00,74.1,65.7,30.04,ENE,68,1.0,2.0,75,0.00,,,0.00,Wunderground v.1.15,2013-04-18 01:10:00,
2013-04-17 21:15:00,73.9,65.9,30.05,ENE,68,1.0,4.0,76,0.00,,,0.00,Wunderground v.1.15,2013-04-18 01:15:00,
2013-04-17 21:25:00,73.6,65.6,30.05,ENE,63,2.0,2.0,76,0.00,,,0.00,Wunderground v.1.15,2013-04-18 01:25:00,
2013-04-17 21:30:00,73.5,65.8,30.05,ENE,69,2.0,4.0,77,0.00,,,0.00,Wunderground v.1.15,2013-04-18 01:30:00,
2013-04-17 21:35:00,73.4,65.7,30.05,ENE,68,2.0,4.0,77,0.00,,,0.00,Wunderground v.1.15,2013-04-18 01:35:00,
2013-04-17 21:40:00,73.3,65.7,30.05,ENE,68,2.0,2.0,77,0.00,,,0.00,Wunderground v.1.15,2013-04-18 01:40:00,
2013-04-17 21:45:00,73.2,65.6,30.05,ENE,67,2.0,2.0,77,0.00,,,0.00,Wunderground v.1.15,2013-04-18 01:45:00,
2013-04-17 21:50:00,73.1,65.8,30.05,ENE,67,1.0,1.0,78,0.00,,,0.00,Wunderground v.1.15,2013-04-18 01:50:00,
2013-04-17 21:55:00,72.9,65.6,30.05,ENE,67,0.0,1.0,78,0.00,,,0.00,Wunderground v.1.15,2013-04-18 01:55:00,
2013-04-17 22:00:00,72.7,65.8,30.05,ENE,67,1.0,1.0,79,0.00,,,0.00,Wunderground v.1.15,2013-04-18 02:00:00,
2013-04-17 22:05:00,72.6,65.7,30.05,ENE,67,1.0,1.0,79,0.00,,,0.00,Wunderground v.1.15,2013-04-18 02:05:00,
2013-04-17 22:10:00,72.4,65.5,30.05,ENE,67,0.0,0.0,79,0.00,,,0.00,Wunderground v.1.15,2013-04-18 02:10:00,
2013-04-17 22:15:00,72.2,65.7,30.05,ENE,67,0.0,0.0,80,0.00,,,0.00,Wunderground v.1.15,2013-04-18 02:15:00,
2013-04-17 22:20:00,72.0,65.5,30.06,ENE,67,0.0,0.0,80,0.00,,,0.00,Wunderground v.1.15,2013-04-18 02:20:00,
2013-04-17 22:25:00,71.9,65.4,30.06,ENE,67,0.0,0.0,80,0.00,,,0.00,Wunderground v.1.15,2013-04-18 02:25:00,
2013-04-17 22:30:00,71.7,65.6,30.06,ENE,67,0.0,0.0,81,0.00,,,0.00,Wunderground v.1.15,2013-04-18 02:30:00,
2013-04-17 22:35:00,71.5,65.4,30.07,ENE,67,0.0,0.0,81,0.00,,,0.00,Wunderground v.1.15,2013-04-18 02:35:00,
2013-04-17 22:40:00,71.3,65.5,30.06,ENE,67,0.0,0.0,82,0.00,,,0.00,Wunderground v.1.15,2013-04-18 02:40:00,
2013-04-17 22:45:00,71.2,65.4,30.06,ENE,67,0.0,0.0,82,0.00,,,0.00,Wunderground v.1.15,2013-04-18 02:45:00,
2013-04-17 22:50:00,70.9,65.1,30.06,ENE,67,0.0,0.0,82,0.00,,,0.00,Wunderground v.1.15,2013-04-18 02:50:00,
2013-04-17 22:55:00,70.7,65.3,30.06,ENE,67,0.0,0.0,83,0.00,,,0.00,Wunderground v.1.15,2013-04-18 02:55:00,
2013-04-17 23:00:00,70.5,65.1,30.06,ENE,67,0.0,0.0,83,0.00,,,0.00,Wunderground v.1.15,2013-04-18 03:00:00,
2013-04-17 23:05:00,70.1,65.0,30.06,ENE,67,0.0,0.0,84,0.00,,,0.00,Wunderground v.1.15,2013-04-18 03:05:00,
2013-04-17 23:10:00,69.8,64.7,30.05,ENE,67,0.0,0.0,84,0.00,,,0.00,Wunderground v.1.15,2013-04-18 03:10:00,
2013-04-17 23:20:00,69.3,64.6,30.05,ENE,67,0.0,0.0,85,0.00,,,0.00,Wunderground v.1.15,2013-04-18 03:20:00,
2013-04-17 23:25:00,69.0,64.3,30.05,ENE,67,0.0,0.0,85,0.00,,,0.00,Wunderground v.1.15,2013-04-18 03:25:00,
2013-04-17 23:30:00,68.7,64.0,30.05,ENE,67,0.0,0.0,85,0.00,,,0.00,Wunderground v.1.15,2013-04-18 03:30:00,
2013-04-17 23:35:00,68.6,64.2,30.05,ENE,67,0.0,0.0,86,0.00,,,0.00,Wunderground v.1.15,2013-04-18 03:35:00,
2013-04-17 23:40:00,68.3,63.6,30.05,ENE,67,0.0,0.0,85,0.00,,,0.00,Wunderground v.1.15,2013-04-18 03:40:00,
2013-04-17 23:45:00,68.0,63.3,30.05,ENE,67,0.0,0.0,85,0.00,,,0.00,Wunderground v.1.15,2013-04-18 03:45:00,
2013-04-17 23:50:00,67.8,63.5,30.04,ENE,67,0.0,0.0,86,0.00,,,0.00,Wunderground v.1.15,2013-04-18 03:50:00,
2013-04-17 23:55:00,67.7,63.4,30.04,ENE,67,0.0,0.0,86,0.00,,,0.00,Wunderground v.1.15,2013-04-18 03:55:00,